Flag for Norway Weather past 2 weeks in Lørenskog, Norway

Now
58 °F

Cool.


Feels Like: 57 °F
Forecast: 45 / 61 °F
Wind: 5 mph from Northeast

Location: Oslo-Blindern

Current Time: Aug 23, 2014 at 8:13:55 PM

Latest Report: Aug 23, 2014 at 7:00 PM


Visibility: N/A

Pressure: 29.57 "Hg

Humidity: 74%

Dew point: 49 °F

Location of LørenskogLocation

Historic Weather in Lørenskog — Graph

°F

Lørenskog temperature yesterday

Maximum temperature yesterday: 63 °F (at 12:00 PM)
Minimum temperature yesterday: 51 °F (at 6:00 AM)
Average temperature yesterday: 56 °F

Past Weeks' High & Low Weather Summary

 TemperatureHumidityPressure
High74 °F (Aug 8, 6:00 PM)97% (Aug 17, 11:00 AM)29.87 "Hg (Aug 17, 11:00 AM)
Low49 °F (Aug 20, 4:00 AM)45% (Aug 21, 2:00 PM)29.18 "Hg (Aug 18, 9:00 AM)
Average59 °F79%29.54 "Hg
* Reported Aug 8 6:00 PM — Aug 23 6:00 PM, Lørenskog, Weather by CustomWeather, © 2014

Note: Actual official high and low records may vary slightly from our data, if they occured in-between our weather recording intervals... More about our weather records

Advertising

Lørenskog weather history for previous 24 hours

 ConditionsComfort  
Time TempWeatherWind HumidityBarometerVisibility
6:00 PM
Aug 23
62 °FCool.2 mph60%29.56 "HgN/A
5:00 PM64 °FOvercast.3 mph54%29.56 "Hg47 mi
4:00 PM65 °FMild.2 mph49%29.56 "HgN/A
3:00 PM64 °FMild.3 mph53%29.57 "HgN/A
2:00 PM63 °FPartly sunny.2 mph53%29.57 "Hg47 mi
1:00 PM65 °FMild.2 mph56%29.57 "HgN/A
12:00 PM62 °FCool.1 mph71%29.57 "HgN/A
11:00 AM57 °FCool.1 mph80%29.58 "HgN/A
10:00 AM56 °FCool.1 mph82%29.58 "HgN/A
9:00 AM54 °FCool.1 mph89%29.58 "HgN/A
8:00 AM53 °FCool.2 mph95%29.58 "HgN/A
7:00 AM52 °FCool.1 mph94%29.58 "HgN/A
6:00 AM52 °FCool.2 mph93%29.57 "HgN/A
5:00 AM53 °FOvercast.1 mph94%29.59 "Hg43 mi
4:00 AM53 °FCool.2 mph93%29.59 "HgN/A
3:00 AM53 °FCool.2 mph93%29.60 "HgN/A
2:00 AM53 °FOvercast.2 mph92%29.61 "Hg43 mi
1:00 AM53 °FCool.2 mph92%29.62 "HgN/A
12:00 AM53 °FCool.2 mph92%29.62 "HgN/A
11:00 PM
Aug 22
55 °FPassing clouds.2 mph86%29.63 "Hg47 mi
10:00 PM55 °FCool.2 mph85%29.63 "HgN/A
9:00 PM55 °FCool.2 mph82%29.63 "HgN/A
8:00 PM56 °FOvercast.2 mph78%29.63 "Hg47 mi
Weather by CustomWeather, © 2014

See weather overviewHow to use our weather pages